Temp
65 64 65 64 64 65 64 66 67 68 68 68 69 68 69 69 69 68 67 67 68 66 64 65 65 65 65 64 64 64 64 64 63 62 61 62 61 61 63 62 62 62 62 62 62 59 57 56 58 62 62 62 62 63 64 65 65 64 63 64 65 65 65
66 66 67 66 64 64 63 65 66 67 67 68 68 68 68 69 68 68 67 67 66 65 65 65 65 65 64 64 63 63 63 63 63 63 63 62 62 62 60 60 61 60 61 60 61 61 57 56 56 58 59 62 62 62 63 65 65 64 64 65 66 66 65
65 65 65 64 65 65 64 65 65 66 66 66 68 68 68 69 69 68 67 66 65 66 66 65 65 64 64 64 64 64 64 63 64 63 63 63 62 63 62 61 60 60 60 59 59 59 60 60 57 58 59 59 58 61 63 63 64 65 65 64 65 67 67
64 63 61 62 64 64 65 66 67 67 67 68 66 67 67 68 67 67 66 65 66 65 65 65 64 64 64 64 64 64 64 63 63 63 62 63 63 63 62 61 61 60 60 59 59 60 60 58 58 58 59 60 60 59 61 64 64 65 66 65 66 66 68
64 63 62 61 62 63 64 64 65 65 65 66 65 65 65 66 66 66 66 66 66 65 64 64 64 65 64 65 64 64 64 63 63 63 63 63 63 62 63 62 62 62 62 61 61 62 60 60 61 59 59 60 60 61 63 63 65 65 65 64 67 67 68
62 63 63 63 63 62 62 62 63 63 64 64 65 66 66 67 67 67 66 65 65 65 65 63 63 64 63 64 64 64 64 63 64 64 63 63 63 62 62 63 62 62 62 62 63 62 61 61 61 58 60 61 58 59 61 62 61 64 66 65 65 66 68
62 63 63 63 62 62 62 62 63 64 64 64 65 65 66 67 66 67 66 65 65 65 65 65 64 64 65 64 63 63 64 64 63 63 63 64 64 64 63 62 62 62 62 63 63 62 61 60 59 59 59 59 60 59 60 61 62 61 62 65 64 66 65
62 62 62 62 62 61 62 62 63 63 63 64 65 66 67 66 66 66 66 65 65 65 65 64 64 64 64 64 64 63 63 63 63 63 62 63 63 63 63 62 62 62 62 63 63 63 63 62 62 61 60 57 57 58 58 59 60 61 63 64 66 65 66
63 63 62 62 62 62 62 62 62 62 62 63 65 66 66 67 66 66 66 65 65 65 65 65 64 64 64 63 63 63 62 64 63 63 63 63 63 63 63 63 62 62 62 63 63 64 63 63 63 63 62 60 57 54 57 57 58 60 65 62 64 65 65
62 61 61 61 62 62 62 62 61 61 62 63 64 66 65 67 67 66 66 65 65 64 64 64 64 63 64 63 62 62 62 63 62 62 62 63 63 63 63 63 61 61 62 63 63 64 64 63 64 64 64 62 61 58 55 55 57 57 61 64 61 63 65
61 61 61 61 62 61 61 61 61 61 62 63 64 64 65 65 66 67 65 64 64 64 64 64 64 64 63 62 62 62 63 63 63 62 62 62 63 63 63 63 63 62 64 63 64 64 63 63 63 63 63 63 61 60 58 56 56 59 59 63 64 63 64
61 61 62 62 61 61 60 60 60 60 62 62 62 62 63 63 63 64 64 64 63 63 63 63 63 63 63 63 63 62 63 63 62 62 62 62 62 63 62 62 63 62 64 63 64 64 64 63 63 63 62 62 62 63 60 59 55 58 63 60 63 66 64
61 61 61 61 60 60 60 59 59 59 60 62 61 62 62 62 61 61 60 60 61 61 62 62 62 62 62 62 62 62 62 63 62 62 62 62 63 62 62 62 63 63 64 64 63 64 63 64 64 63 63 62 62 61 60 59 58 57 60 61 61 63 65
60 60 60 60 60 60 59 59 58 58 59 59 60 60 60 60 60 58 58 59 59 60 61 63 63 62 62 62 62 62 63 63 62 62 61 62 63 62 62 62 63 64 64 63 64 63 62 63 62 62 63 62 61 61 60 60 58 57 58 60 61 61 64
59 58 58 60 59 59 58 57 58 57 57 58 59 59 59 59 59 58 58 56 54 52 52 54 56 59 61 62 62 62 62 62 62 61 61 61 62 62 62 62 62 62 63 63 63 63 63 62 62 61 62 62 61 61 63 61 60 58 58 58 59 61 61
57 56 57 58 58 58 58 57 58 56 56 56 58 57 57 58 58 58 57 53 53 51 50 50 51 51 53 57 60 62 62 61 61 61 61 61 61 62 61 61 61 62 62 62 62 62 62 63 63 61 61 62 61 62 63 64 61 58 58 58 60 60 60
56 56 56 57 57 57 57 57 57 56 56 56 55 56 57 57 56 56 55 52 51 49 49 48 48 48 49 51 53 59 62 62 61 61 61 61 62 61 61 61 61 62 62 61 62 61 61 61 61 62 62 62 62 62 63 63 63 60 59 58 59 61 60
56 55 56 56 56 56 56 57 57 56 55 55 55 55 55 56 55 54 54 50 49 48 48 47 46 46 46 48 49 52 58 61 61 61 61 61 62 62 61 61 62 62 62 61 61 61 60 60 61 61 61 62 62 62 63 63 62 61 60 59 58 60 60
55 55 56 56 56 57 57 56 55 54 55 54 54 54 54 53 53 52 52 52 49 48 47 46 45 44 44 46 47 49 52 56 60 61 61 61 62 61 61 62 62 62 62 61 61 61 61 62 62 60 61 62 62 61 61 62 62 60 60 60 59 57 59
55 55 56 57 57 57 56 56 55 54 53 53 53 53 53 52 53 52 51 51 50 47 46 45 44 43 43 44 44 46 49 52 55 59 62 62 62 62 62 62 62 62 62 62 61 61 62 61 61 61 61 61 61 61 61 61 61 61 60 59 59 60 59
55 55 56 57 57 57 56 56 56 54 54 52 52 52 52 52 52 52 51 51 50 48 46 45 44 43 43 43 43 44 47 49 51 55 59 61 61 61 62 62 62 62 62 62 62 62 62 61 61 61 61 61 60 60 60 60 60 60 58 58 58 57 59
54 54 55 56 56 56 56 56 56 55 54 52 52 51 51 51 50 50 51 50 49 47 45 44 44 43 42 42 42 43 45 47 49 52 57 60 61 61 61 61 62 62 63 64 59 59 60 60 60 59 60 60 60 60 59 59 59 58 58 58 57 58 58
53 53 53 54 54 55 55 55 55 55 54 53 51 51 51 50 50 49 49 49 49 47 45 45 45 43 43 42 42 42 43 45 48 52 55 58 60 61 61 61 62 64 60 59 56 53 51 53 57 60 60 60 60 60 59 59 59 58 58 57 56 56 57
52 51 51 52 52 52 53 53 53 53 53 53 53 52 51 50 49 48 48 48 47 46 45 45 42 41 41 41 43 43 43 45 49 52 55 57 59 59 60 61 60 61 60 58 57 51 49 48 49 52 54 57 59 61 60 60 60 59 57 58 57 57 57
51 50 50 51 51 51 51 51 51 51 51 51 52 53 52 51 50 49 48 47 47 46 45 44 41 41 41 40 42 44 45 47 51 53 55 57 59 59 59 59 59 61 61 61 60 56 53 48 45 46 49 51 50 51 54 59 60 58 58 58 57 58 58
52 52 51 50 50 51 49 49 49 50 50 50 51 51 51 51 50 49 48 47 46 46 45 43 41 41 41 40 40 44 47 50 52 54 56 57 58 60 58 58 58 59 61 61 61 59 57 56 48 45 49 51 51 48 47 49 52 61 62 61 59 58 59
51 52 52 52 51 51 51 48 47 48 49 49 49 49 50 50 50 48 48 47 46 46 45 43 41 41 41 40 40 43 47 49 52 55 54 55 52 51 51 53 56 58 59 59 59 60 59 57 54 54 53 55 58 55 47 45 48 50 55 62 61 60 61
50 51 51 51 51 50 50 50 49 48 48 48 48 48 48 48 49 48 47 47 46 46 45 42 40 40 40 40 41 43 46 47 49 51 52 52 51 50 49 48 48 49 51 55 58 57 59 57 56 56 56 57 58 57 58 56 57 59 59 61 60 60 56
49 49 50 49 49 49 49 49 50 49 47 47 47 47 47 48 48 47 47 46 45 44 45 42 40 40 40 40 42 44 45 45 47 47 48 49 48 48 48 47 45 44 45 48 46 38 43 55 58 57 55 57 57 55 49 44 39 40 46 57 59 57 53
49 48 48 48 48 48 48 48 48 50 48 46 46 46 46 47 48 46 46 46 44 44 43 43 40 40 40 40 42 43 44 44 45 45 45 46 46 46 47 47 45 42 42 43 41 37 39 44 58 58 58 57 56 53 50 48 42 40 41 42 42 42 41
48 47 47 46 46 47 48 48 48 49 48 46 46 46 46 47 47 46 45 45 46 44 43 44 41 40 40 40 42 42 43 42 43 43 43 44 44 44 45 46 46 42 41 41 38 38 38 45 55 58 58 57 55 53 51 50 50 46 42 42 42 42 42
47 46 46 46 46 46 46 47 47 47 47 47 47 47 47 47 47 45 45 45 48 45 44 44 42 40 40 40 41 42 42 41 41 41 41 41 43 42 43 43 44 41 41 40 38 38 37 44 54 57 57 57 55 54 52 52 51 50 51 52 52 52 49
45 45 45 44 45 45 46 46 45 46 46 45 46 46 47 46 47 47 46 45 45 44 44 43 43 40 40 40 40 42 41 40 39 40 41 41 40 40 41 41 42 40 38 38 38 38 38 38 44 56 57 56 55 54 53 53 53 52 52 51 51 51 49
45 45 44 45 45 45 45 45 44 45 44 44 45 45 45 45 46 46 46 45 44 44 45 44 43 41 40 40 40 40 40 39 39 41 40 40 39 39 39 39 40 40 38 38 38 38 38 39 39 47 56 57 56 53 49 51 51 50 52 51 51 51 50
47 49 46 44 44 44 45 45 45 43 43 43 43 43 44 43 43 44 44 44 44 43 45 46 43 42 40 40 40 40 40 40 39 41 40 39 39 38 38 39 39 39 38 38 38 38 38 38 39 43 41 41 43 44 52 52 52 52 51 51 51 50 50
47 49 48 46 44 44 44 45 44 44 42 42 42 42 42 42 40 41 42 42 42 43 44 46 43 41 40 39 39 39 39 39 38 41 40 38 38 38 39 38 40 40 38 38 38 38 39 38 40 39 38 40 42 44 47 52 50 51 50 50 50 49 49
47 45 46 46 44 44 44 43 43 43 42 41 40 41 41 42 40 39 40 40 41 42 43 43 43 41 40 39 38 38 38 38 39 39 41 39 39 38 37 38 38 38 38 38 38 38 38 38 38 38 39 39 42 46 50 49 49 47 45 46 47 47 47
MSLP
1018.83 1018.83 1018.51 1018.35 1018.19 1018.11 1018.07 1017.91 1017.63 1017.31 1017.03 1016.79 1016.71 1016.63 1016.51 1016.51 1016.59 1016.83 1017.11 1017.07 1016.87 1017.31 1017.47 1017.39 1017.35 1017.11 1017.27 1017.39 1017.43 1017.39 1017.35 1017.35 1017.27 1017.39 1017.47 1017.35 1017.43 1017.31 1017.27 1017.59 1017.75 1017.83 1017.99 1018.11 1017.75 1017.87 1018.11 1018.95 1018.83 1018.31 1018.19 1018.31 1018.35 1018.27 1018.15 1018.23 1018.31 1018.39 1018.51 1018.55 1018.67 1018.75 1018.71
1018.67 1018.59 1018.43 1018.27 1018.23 1018.07 1018.11 1017.75 1017.47 1017.15 1016.91 1016.71 1016.59 1016.59 1016.55 1016.51 1016.47 1016.39 1016.75 1016.99 1016.91 1017.23 1017.27 1017.07 1017.03 1016.99 1016.91 1016.87 1016.95 1016.99 1017.27 1017.51 1017.51 1017.27 1017.19 1017.07 1017.07 1016.99 1017.31 1017.43 1017.51 1017.71 1017.75 1017.99 1017.91 1018.11 1017.83 1018.39 1018.63 1018.59 1018.55 1018.39 1018.39 1018.31 1018.15 1017.95 1017.99 1018.07 1018.19 1018.23 1018.39 1018.47 1018.59
1018.67 1018.59 1018.59 1018.55 1018.35 1018.11 1018.07 1017.79 1017.51 1017.31 1017.07 1016.91 1016.75 1016.59 1016.59 1016.47 1016.35 1016.27 1016.27 1016.39 1016.47 1016.39 1016.63 1016.87 1016.87 1016.83 1016.87 1016.71 1016.35 1016.47 1016.67 1016.79 1016.79 1016.87 1016.79 1016.59 1016.51 1016.51 1016.75 1016.95 1017.47 1017.59 1017.79 1017.95 1017.95 1018.03 1017.59 1017.35 1017.99 1018.43 1018.35 1018.43 1018.55 1018.11 1017.95 1017.95 1017.83 1017.87 1017.99 1017.99 1018.15 1018.23 1018.27
1018.79 1018.71 1018.83 1018.75 1018.51 1018.27 1018.23 1018.07 1017.95 1017.67 1017.31 1017.15 1016.91 1016.79 1016.63 1016.43 1016.31 1016.23 1016.27 1016.35 1016.47 1016.59 1016.51 1016.67 1016.67 1016.63 1016.67 1016.43 1016.23 1016.15 1016.27 1016.47 1016.43 1016.39 1016.59 1016.31 1016.11 1016.15 1016.27 1016.59 1016.95 1017.19 1017.27 1017.59 1017.59 1017.75 1017.39 1017.51 1017.79 1017.99 1018.07 1017.99 1017.87 1018.15 1017.83 1017.59 1017.67 1017.75 1017.83 1017.87 1017.99 1017.95 1017.91
1019.03 1018.95 1018.99 1019.03 1018.91 1018.83 1018.63 1018.43 1018.15 1017.91 1017.67 1017.39 1017.19 1016.99 1016.75 1016.39 1016.23 1016.19 1016.15 1016.23 1016.31 1016.31 1016.27 1016.27 1016.23 1016.11 1016.27 1016.23 1016.15 1015.99 1015.91 1015.99 1015.99 1016.03 1015.91 1015.87 1015.91 1016.03 1015.95 1016.15 1016.39 1016.47 1016.55 1016.67 1016.83 1016.95 1017.07 1017.07 1017.19 1017.55 1017.79 1017.79 1017.91 1017.71 1017.39 1017.59 1017.51 1017.63 1017.67 1017.71 1017.67 1017.63 1017.63
1019.19 1019.11 1018.95 1018.91 1018.95 1019.03 1018.95 1018.71 1018.39 1018.15 1017.75 1017.51 1017.23 1017.03 1016.71 1016.39 1016.19 1016.19 1016.15 1016.19 1016.19 1016.07 1015.99 1015.99 1015.99 1016.03 1016.11 1016.15 1016.03 1015.79 1015.51 1015.55 1015.51 1015.39 1015.39 1015.27 1015.23 1015.51 1015.51 1015.63 1015.99 1016.07 1016.07 1016.03 1016.19 1016.43 1016.51 1016.59 1016.83 1017.35 1017.35 1017.27 1017.63 1017.67 1017.39 1017.47 1017.71 1017.55 1017.35 1017.43 1017.39 1017.43 1017.43
1019.59 1019.39 1019.27 1019.23 1019.19 1019.11 1018.99 1018.75 1018.39 1018.11 1017.83 1017.55 1017.23 1017.07 1016.79 1016.51 1016.39 1016.23 1016.19 1016.15 1016.07 1015.95 1015.87 1015.79 1015.67 1015.59 1015.51 1015.47 1015.43 1015.31 1015.19 1015.15 1015.15 1015.11 1015.03 1014.95 1014.87 1014.79 1014.95 1015.31 1015.55 1015.71 1015.59 1015.67 1015.91 1016.31 1016.55 1016.83 1017.07 1016.99 1017.23 1017.39 1017.27 1017.47 1017.27 1017.39 1017.27 1017.71 1017.51 1017.19 1017.15 1017.19 1017.27
1019.79 1019.71 1019.63 1019.47 1019.31 1019.23 1019.07 1018.87 1018.59 1018.35 1018.15 1017.83 1017.47 1017.11 1016.83 1016.67 1016.47 1016.27 1016.15 1016.07 1015.91 1015.79 1015.67 1015.59 1015.43 1015.31 1015.15 1015.03 1014.95 1014.95 1014.99 1014.99 1014.75 1014.67 1014.71 1014.67 1014.63 1014.59 1014.59 1014.67 1014.99 1015.23 1015.31 1015.39 1015.55 1015.75 1015.87 1015.95 1016.19 1016.39 1016.71 1017.47 1017.63 1017.51 1017.55 1017.35 1017.39 1017.23 1016.95 1016.95 1016.87 1017.11 1017.07
1019.95 1019.87 1019.83 1019.71 1019.59 1019.43 1019.27 1019.11 1018.87 1018.63 1018.35 1018.07 1017.67 1017.31 1017.03 1016.79 1016.51 1016.27 1016.03 1015.91 1015.71 1015.55 1015.39 1015.31 1015.23 1015.15 1014.95 1014.87 1014.75 1014.67 1014.75 1014.67 1014.67 1014.39 1014.27 1014.23 1014.23 1014.31 1014.39 1014.39 1014.67 1014.87 1015.11 1015.11 1015.11 1015.19 1015.39 1015.39 1015.51 1015.75 1016.07 1016.47 1017.11 1017.79 1017.55 1017.55 1017.47 1017.23 1016.63 1017.03 1016.91 1016.83 1016.91
1020.15 1020.11 1020.07 1019.95 1019.79 1019.59 1019.43 1019.31 1019.15 1018.87 1018.51 1018.23 1017.95 1017.63 1017.39 1016.95 1016.55 1016.27 1016.03 1015.83 1015.67 1015.51 1015.35 1015.19 1015.07 1014.91 1014.71 1014.63 1014.55 1014.35 1014.31 1014.23 1014.59 1014.51 1014.23 1013.99 1013.71 1013.79 1013.99 1014.07 1014.39 1014.63 1014.75 1014.67 1014.71 1014.79 1014.95 1015.15 1015.19 1015.27 1015.43 1015.79 1016.11 1016.79 1017.39 1017.39 1017.15 1017.11 1016.71 1016.43 1016.99 1016.79 1016.71
1020.27 1020.15 1020.07 1019.99 1019.87 1019.79 1019.67 1019.51 1019.31 1018.99 1018.67 1018.39 1018.15 1017.95 1017.67 1017.27 1016.83 1016.47 1016.23 1015.99 1015.79 1015.55 1015.35 1015.07 1014.87 1014.67 1014.47 1014.35 1014.23 1014.07 1013.91 1014.03 1014.07 1013.87 1013.83 1013.75 1013.51 1013.39 1013.51 1013.67 1013.87 1014.15 1014.11 1014.23 1014.23 1014.39 1014.63 1014.71 1014.95 1015.11 1015.23 1015.31 1015.51 1015.95 1016.31 1016.83 1016.67 1016.27 1016.39 1016.23 1016.19 1016.47 1016.51
1020.23 1020.15 1020.07 1020.03 1019.95 1019.91 1019.83 1019.83 1019.63 1019.35 1018.95 1018.55 1018.35 1018.11 1017.83 1017.55 1017.27 1016.91 1016.59 1016.27 1015.95 1015.63 1015.27 1014.99 1014.71 1014.55 1014.31 1014.07 1013.87 1013.79 1013.71 1013.71 1013.67 1013.55 1013.47 1013.59 1013.43 1013.31 1013.35 1013.51 1013.59 1013.75 1013.67 1013.79 1013.87 1014.03 1014.27 1014.51 1014.71 1014.91 1015.03 1015.11 1015.31 1015.35 1015.79 1016.03 1016.47 1015.91 1015.67 1016.15 1015.87 1015.71 1016.11
1020.27 1020.23 1020.19 1020.15 1020.07 1020.03 1020.03 1020.07 1019.95 1019.63 1019.35 1018.95 1018.59 1018.23 1018.03 1017.87 1017.67 1017.51 1017.19 1016.75 1016.23 1015.67 1015.23 1014.83 1014.55 1014.35 1014.11 1013.91 1013.71 1013.63 1013.47 1013.43 1013.47 1013.39 1013.31 1013.39 1013.31 1013.35 1013.43 1013.35 1013.35 1013.43 1013.39 1013.47 1013.67 1013.83 1013.99 1014.23 1014.43 1014.67 1014.75 1014.91 1015.07 1015.19 1015.31 1015.67 1015.75 1015.83 1015.43 1015.43 1015.55 1015.59 1015.67
1020.43 1020.39 1020.31 1020.23 1020.19 1020.23 1020.27 1020.27 1020.19 1019.99 1019.63 1019.31 1018.95 1018.63 1018.43 1018.27 1018.07 1017.95 1017.63 1017.27 1016.83 1016.19 1015.47 1014.87 1014.43 1014.19 1013.99 1013.75 1013.47 1013.35 1013.23 1013.19 1013.23 1013.19 1013.23 1013.19 1013.19 1013.23 1013.31 1013.31 1013.27 1013.15 1013.23 1013.51 1013.47 1013.67 1014.03 1014.15 1014.43 1014.51 1014.55 1014.71 1014.83 1014.87 1015.07 1015.27 1015.55 1015.63 1015.55 1015.23 1015.43 1015.51 1015.59
1020.59 1020.51 1020.47 1020.35 1020.31 1020.39 1020.47 1020.51 1020.39 1020.19 1019.95 1019.67 1019.31 1019.11 1018.83 1018.63 1018.39 1018.19 1018.03 1018.07 1017.83 1017.43 1016.95 1016.31 1015.71 1014.83 1014.15 1013.71 1013.39 1013.23 1013.19 1013.11 1013.03 1013.19 1013.35 1013.31 1013.19 1013.07 1013.07 1013.19 1013.19 1013.23 1013.31 1013.35 1013.35 1013.63 1013.79 1014.07 1014.47 1014.67 1014.63 1014.43 1014.55 1014.59 1014.47 1014.83 1015.03 1015.27 1015.59 1015.43 1015.51 1015.43 1015.55
1020.79 1020.71 1020.63 1020.59 1020.59 1020.59 1020.67 1020.67 1020.59 1020.51 1020.31 1019.99 1019.67 1019.43 1019.23 1018.91 1018.67 1018.39 1018.31 1018.51 1018.19 1017.83 1017.55 1017.23 1016.71 1016.19 1015.51 1014.67 1013.75 1013.27 1013.15 1013.07 1013.03 1013.07 1013.07 1013.07 1013.03 1012.99 1013.07 1013.07 1012.99 1012.91 1013.11 1013.31 1013.31 1013.39 1013.59 1013.67 1013.87 1014.35 1014.31 1014.23 1014.35 1014.19 1014.07 1014.11 1014.55 1014.95 1015.19 1015.31 1015.07 1015.35 1015.43
1021.07 1020.99 1020.91 1020.91 1020.91 1020.87 1020.83 1020.83 1020.79 1020.71 1020.59 1020.31 1020.03 1019.75 1019.51 1019.27 1019.03 1018.79 1018.63 1018.91 1018.75 1018.43 1018.03 1017.75 1017.39 1017.03 1016.51 1015.83 1015.03 1013.79 1013.15 1013.03 1012.91 1012.95 1012.95 1012.83 1012.79 1012.95 1012.91 1012.75 1012.63 1012.55 1012.71 1013.03 1013.11 1013.27 1013.51 1013.79 1014.03 1014.07 1014.03 1013.95 1013.79 1013.63 1013.67 1013.79 1013.87 1014.11 1014.51 1014.95 1015.11 1014.87 1015.07
1021.39 1021.27 1021.23 1021.23 1021.19 1021.15 1020.99 1020.95 1020.95 1020.91 1020.75 1020.55 1020.39 1020.11 1019.83 1019.55 1019.43 1019.31 1018.99 1019.23 1019.19 1018.95 1018.71 1018.47 1018.07 1017.59 1017.07 1016.51 1015.91 1015.03 1013.87 1013.19 1012.99 1012.83 1012.67 1012.55 1012.47 1012.55 1012.55 1012.43 1012.23 1012.23 1012.35 1012.63 1012.63 1012.91 1013.39 1013.55 1013.91 1014.15 1014.03 1013.63 1013.43 1013.31 1013.43 1013.47 1013.51 1013.63 1014.03 1014.31 1014.67 1014.71 1014.87
1021.71 1021.59 1021.55 1021.47 1021.39 1021.31 1021.19 1021.07 1021.03 1021.03 1020.95 1020.87 1020.67 1020.47 1020.31 1020.11 1019.95 1019.83 1019.55 1019.43 1019.59 1019.39 1019.15 1018.91 1018.75 1018.39 1017.83 1017.07 1016.39 1015.59 1014.87 1014.03 1013.23 1012.83 1012.51 1012.39 1012.39 1012.51 1012.47 1012.11 1011.95 1011.91 1012.03 1012.27 1012.31 1012.67 1013.11 1013.31 1013.59 1013.75 1013.51 1013.43 1013.27 1013.27 1013.23 1013.15 1013.23 1013.51 1013.71 1013.91 1014.23 1014.71 1014.87
1022.03 1021.95 1021.79 1021.71 1021.55 1021.43 1021.31 1021.15 1021.07 1021.07 1021.03 1021.03 1020.91 1020.75 1020.59 1020.43 1020.27 1020.23 1020.03 1019.75 1019.71 1019.75 1019.47 1019.15 1018.87 1018.63 1018.19 1017.63 1017.03 1016.19 1015.39 1014.71 1013.83 1012.95 1012.39 1012.15 1012.07 1012.03 1011.87 1011.79 1011.79 1011.79 1011.83 1011.91 1012.07 1012.31 1012.55 1012.79 1012.83 1012.83 1012.83 1013.23 1013.19 1013.07 1013.03 1013.07 1013.19 1013.39 1013.51 1013.75 1014.07 1014.15 1014.47
1022.27 1022.19 1022.07 1021.91 1021.75 1021.63 1021.51 1021.31 1021.19 1021.15 1021.11 1021.11 1021.11 1021.03 1020.95 1020.83 1020.67 1020.43 1020.23 1020.11 1020.03 1019.99 1019.67 1019.19 1018.95 1018.75 1018.51 1017.99 1017.27 1016.59 1015.87 1015.11 1014.39 1013.55 1012.67 1012.15 1012.11 1011.95 1011.75 1011.67 1011.63 1011.55 1011.55 1011.59 1011.79 1011.99 1012.11 1012.43 1012.31 1012.35 1012.47 1012.99 1013.03 1012.95 1012.95 1012.99 1013.11 1013.31 1013.63 1013.59 1013.79 1014.19 1014.19
1022.35 1022.31 1022.27 1022.11 1021.99 1021.83 1021.71 1021.55 1021.39 1021.27 1021.19 1021.19 1021.19 1021.19 1021.11 1020.95 1020.79 1020.63 1020.47 1020.31 1020.19 1020.07 1019.95 1019.87 1019.67 1019.39 1018.59 1017.79 1017.35 1016.71 1016.03 1015.39 1014.75 1013.99 1013.03 1012.31 1011.87 1011.63 1011.59 1011.59 1011.47 1011.31 1011.27 1011.31 1011.43 1011.75 1012.03 1012.03 1012.15 1012.35 1012.35 1012.59 1012.79 1012.87 1012.79 1012.87 1012.95 1013.15 1013.39 1013.55 1013.71 1013.79 1014.07
1022.47 1022.43 1022.31 1022.23 1022.11 1022.03 1021.91 1021.79 1021.67 1021.51 1021.43 1021.31 1021.27 1021.27 1021.19 1021.11 1021.03 1020.95 1020.75 1020.55 1020.39 1020.39 1020.35 1020.31 1020.15 1019.71 1019.19 1018.47 1017.47 1016.79 1016.19 1015.55 1014.95 1014.19 1013.31 1012.51 1011.91 1011.55 1011.35 1011.31 1011.23 1011.07 1011.03 1011.07 1011.23 1011.47 1011.67 1011.71 1011.83 1012.07 1012.27 1012.47 1012.63 1012.51 1012.51 1012.63 1012.79 1012.95 1013.11 1013.39 1013.43 1013.59 1013.87
1022.59 1022.55 1022.51 1022.43 1022.31 1022.19 1022.07 1021.95 1021.87 1021.75 1021.67 1021.55 1021.39 1021.27 1021.31 1021.27 1021.27 1021.27 1021.11 1020.95 1020.75 1020.71 1020.71 1020.59 1020.31 1019.71 1018.95 1018.23 1017.47 1016.79 1016.19 1015.51 1014.83 1014.15 1013.39 1012.75 1012.03 1011.79 1011.55 1011.23 1011.07 1010.91 1010.79 1010.71 1010.83 1011.07 1011.43 1011.63 1011.63 1011.59 1011.71 1012.03 1012.39 1012.27 1012.11 1012.19 1012.27 1012.47 1013.03 1013.15 1013.07 1013.31 1013.31
1022.79 1022.75 1022.67 1022.59 1022.51 1022.39 1022.31 1022.19 1022.11 1022.03 1021.95 1021.87 1021.75 1021.59 1021.47 1021.47 1021.51 1021.43 1021.35 1021.19 1021.03 1020.99 1020.91 1020.71 1020.23 1019.59 1018.87 1018.23 1017.55 1016.75 1016.03 1015.35 1014.59 1013.95 1013.31 1012.71 1012.11 1011.83 1011.63 1011.19 1010.95 1010.79 1010.59 1010.35 1010.35 1010.55 1010.83 1011.23 1011.35 1011.47 1011.39 1011.19 1011.27 1011.51 1011.55 1011.51 1011.59 1011.99 1012.31 1012.55 1012.79 1012.83 1012.95
1023.03 1022.95 1022.95 1022.87 1022.79 1022.71 1022.55 1022.47 1022.39 1022.31 1022.23 1022.23 1022.11 1021.91 1021.83 1021.71 1021.67 1021.67 1021.55 1021.43 1021.31 1021.23 1021.03 1020.79 1020.35 1019.71 1019.03 1018.35 1017.67 1016.87 1015.95 1015.27 1014.67 1014.03 1013.51 1012.99 1012.23 1011.63 1011.39 1011.11 1010.87 1010.63 1010.39 1010.23 1010.11 1010.27 1010.55 1010.71 1011.27 1011.67 1011.11 1010.63 1010.91 1011.43 1011.67 1011.83 1011.75 1011.39 1011.27 1011.67 1012.07 1012.39 1012.35
1023.39 1023.35 1023.31 1023.19 1023.11 1022.99 1022.79 1022.75 1022.71 1022.63 1022.59 1022.43 1022.31 1022.23 1022.11 1022.03 1021.99 1021.99 1021.91 1021.79 1021.63 1021.39 1021.11 1020.99 1020.55 1019.95 1019.31 1018.63 1017.91 1017.23 1016.51 1015.79 1015.03 1014.43 1014.11 1013.67 1013.79 1013.47 1013.07 1012.39 1011.63 1010.95 1010.55 1010.39 1010.27 1010.19 1010.23 1010.35 1011.03 1011.31 1011.35 1011.15 1010.99 1011.43 1011.95 1011.67 1011.35 1011.43 1011.47 1011.31 1011.43 1011.63 1011.63
1023.75 1023.75 1023.67 1023.59 1023.47 1023.39 1023.23 1022.99 1022.87 1022.87 1022.79 1022.75 1022.63 1022.51 1022.39 1022.27 1022.31 1022.31 1022.23 1022.07 1021.87 1021.63 1021.47 1021.31 1020.79 1020.23 1019.67 1019.03 1018.31 1017.63 1017.15 1016.55 1015.87 1015.23 1014.87 1014.51 1014.51 1014.23 1013.95 1013.55 1013.15 1012.63 1011.99 1011.23 1010.79 1010.63 1010.19 1010.35 1010.63 1010.83 1010.99 1010.95 1011.11 1011.03 1011.11 1011.15 1011.07 1010.91 1011.03 1011.23 1011.23 1011.27 1011.35
1024.07 1024.03 1023.99 1023.91 1023.83 1023.71 1023.59 1023.43 1023.15 1023.03 1023.07 1023.03 1022.95 1022.83 1022.67 1022.51 1022.51 1022.51 1022.43 1022.31 1022.15 1021.99 1021.71 1021.51 1021.07 1020.55 1020.03 1019.43 1018.71 1018.11 1017.67 1017.19 1016.67 1016.31 1015.83 1015.47 1015.27 1015.03 1014.59 1014.23 1013.87 1013.59 1013.15 1012.47 1012.23 1012.11 1011.59 1010.75 1010.51 1010.71 1010.75 1010.75 1010.87 1011.03 1011.39 1011.79 1011.91 1011.79 1011.43 1010.91 1010.83 1010.99 1011.15
1024.27 1024.23 1024.19 1024.15 1024.11 1024.03 1023.91 1023.75 1023.59 1023.35 1023.27 1023.27 1023.19 1023.03 1022.87 1022.75 1022.71 1022.71 1022.59 1022.47 1022.35 1022.19 1021.95 1021.63 1021.35 1020.91 1020.43 1019.87 1019.03 1018.67 1018.23 1017.83 1017.39 1017.07 1016.75 1016.39 1016.03 1015.67 1015.31 1014.95 1014.63 1014.27 1013.71 1013.19 1012.91 1012.71 1011.95 1011.35 1010.75 1010.71 1010.47 1010.55 1010.75 1011.11 1010.99 1011.43 1011.79 1011.59 1011.35 1011.35 1011.43 1011.59 1011.59
1024.43 1024.39 1024.35 1024.35 1024.39 1024.35 1024.19 1024.07 1023.91 1023.71 1023.59 1023.51 1023.43 1023.27 1023.11 1022.99 1022.95 1022.95 1022.83 1022.67 1022.47 1022.39 1022.15 1021.83 1021.59 1021.23 1020.79 1020.35 1019.75 1019.27 1018.87 1018.51 1018.15 1017.75 1017.31 1016.95 1016.59 1016.27 1015.91 1015.51 1015.07 1014.75 1014.35 1013.87 1013.51 1012.87 1012.27 1011.43 1010.91 1010.31 1010.43 1010.51 1010.87 1011.19 1011.07 1011.23 1011.47 1011.71 1011.55 1011.47 1011.59 1011.75 1011.83
1024.47 1024.43 1024.43 1024.47 1024.51 1024.47 1024.39 1024.27 1024.23 1024.03 1023.91 1023.83 1023.75 1023.55 1023.31 1023.23 1023.19 1023.11 1023.03 1022.91 1022.59 1022.47 1022.27 1021.95 1021.71 1021.47 1021.07 1020.67 1020.19 1019.75 1019.35 1019.03 1018.51 1018.15 1017.87 1017.47 1017.11 1016.79 1016.35 1015.91 1015.43 1015.23 1014.83 1014.39 1013.67 1012.99 1012.55 1011.67 1010.79 1010.35 1010.15 1010.27 1010.55 1010.79 1011.07 1011.19 1011.07 1011.19 1011.35 1011.39 1011.59 1011.63 1011.91
1024.51 1024.47 1024.51 1024.59 1024.59 1024.59 1024.51 1024.43 1024.39 1024.27 1024.19 1024.19 1024.07 1023.87 1023.67 1023.51 1023.39 1023.31 1023.15 1023.03 1022.83 1022.59 1022.35 1022.11 1021.83 1021.63 1021.35 1020.95 1020.63 1020.23 1019.83 1019.43 1018.99 1018.63 1018.31 1017.99 1017.55 1017.19 1016.91 1016.31 1015.59 1015.19 1014.95 1014.43 1013.75 1013.23 1012.67 1012.11 1011.15 1010.15 1009.79 1010.03 1010.19 1010.39 1010.83 1011.07 1011.15 1011.11 1011.27 1011.35 1011.71 1011.91 1012.11
1024.47 1024.51 1024.63 1024.71 1024.75 1024.71 1024.67 1024.59 1024.51 1024.47 1024.43 1024.39 1024.31 1024.15 1023.95 1023.87 1023.79 1023.63 1023.39 1023.19 1023.03 1022.75 1022.47 1022.27 1021.99 1021.83 1021.55 1021.23 1020.87 1020.55 1020.27 1020.07 1019.75 1019.19 1018.87 1018.51 1018.23 1017.91 1017.43 1016.91 1016.27 1015.75 1015.31 1014.75 1014.15 1013.55 1012.99 1012.35 1011.75 1010.99 1010.19 1009.79 1009.79 1010.11 1010.75 1011.07 1011.31 1011.55 1011.71 1011.87 1011.95 1012.15 1012.39
1024.51 1024.51 1024.67 1024.79 1024.83 1024.91 1024.87 1024.75 1024.67 1024.63 1024.59 1024.55 1024.47 1024.39 1024.23 1024.07 1024.07 1023.99 1023.79 1023.51 1023.27 1023.03 1022.67 1022.39 1022.31 1022.07 1021.87 1021.55 1021.19 1020.87 1020.67 1020.43 1020.19 1019.59 1019.23 1018.99 1018.67 1018.31 1017.99 1017.47 1016.95 1016.43 1015.83 1015.23 1014.63 1014.03 1013.43 1012.83 1012.31 1011.83 1011.39 1010.71 1010.19 1010.31 1010.75 1010.95 1011.27 1011.59 1011.79 1011.91 1012.03 1012.23 1012.35
1024.55 1024.59 1024.67 1024.83 1024.95 1025.07 1025.03 1024.91 1024.87 1024.79 1024.75 1024.71 1024.67 1024.63 1024.47 1024.31 1024.27 1024.27 1024.11 1023.87 1023.59 1023.27 1022.95 1022.59 1022.47 1022.39 1022.15 1021.87 1021.51 1021.15 1020.91 1020.67 1020.27 1019.83 1019.55 1019.35 1019.11 1018.91 1018.43 1017.99 1017.47 1016.87 1016.31 1015.67 1015.07 1014.55 1013.99 1013.43 1012.91 1012.71 1011.95 1010.87 1010.47 1010.55 1010.75 1010.99 1011.23 1011.63 1011.91 1012.11 1012.15 1012.35 1012.63
1024.63 1024.63 1024.71 1024.79 1024.99 1025.19 1025.19 1025.11 1025.07 1025.03 1024.95 1024.95 1024.95 1024.91 1024.79 1024.63 1024.51 1024.43 1024.35 1024.15 1023.83 1023.55 1023.27 1023.03 1022.67 1022.59 1022.43 1022.11 1021.83 1021.51 1021.15 1020.79 1020.51 1020.27 1019.91 1019.71 1019.47 1019.23 1018.91 1018.43 1017.91 1017.27 1016.71 1016.11 1015.55 1014.99 1014.55 1014.15 1013.91 1013.31 1012.63 1011.71 1011.19 1010.79 1010.87 1011.31 1011.63 1011.99 1012.43 1012.71 1012.75 1012.87 1013.15
Wind_Speed
4 4 3 3 1 2 4 5 5 5 4 3 2 2 3 3 3 4 2 2 3 4 5 7 8 8 5 5 6 8 9 9 9 8 8 8 8 6 8 9 8 3 2 7 1 3 5 6 5 2 2 5 4 5 6 6 7 7 6 5 5 5 5
7 7 7 5 4 3 3 5 4 4 4 4 3 3 3 4 5 4 2 3 1 2 5 5 5 6 8 9 8 8 6 5 5 8 8 8 8 10 6 7 7 6 5 3 2 6 2 4 3 7 5 3 4 5 6 5 6 6 6 6 5 6 6
7 7 7 7 7 6 5 5 5 5 5 4 4 4 5 5 5 3 1 1 2 5 4 4 5 3 4 8 10 8 8 9 7 8 9 8 8 8 8 8 7 5 5 5 4 6 2 3 4 7 7 9 8 7 6 6 6 6 6 7 7 7 6
9 8 8 8 7 9 9 8 8 7 6 5 5 5 4 5 5 3 2 3 3 7 6 3 4 4 6 7 7 8 9 9 8 8 8 8 7 8 9 7 9 9 9 10 9 6 5 4 3 4 5 7 9 5 7 7 6 6 7 7 7 7 6
9 8 8 6 7 8 9 8 7 7 6 5 4 4 5 4 3 3 3 1 3 4 5 6 7 7 4 6 5 6 6 8 8 8 9 10 8 6 8 7 8 9 9 9 7 8 8 6 7 5 6 4 2 4 3 6 5 6 7 8 8 7 6
10 10 9 9 8 8 7 8 8 8 7 7 6 7 6 6 5 6 5 5 5 5 4 3 3 3 2 5 6 8 9 8 9 9 9 10 9 9 10 8 8 8 9 8 7 7 7 5 6 5 5 5 5 4 3 7 6 6 6 7 7 7 6
9 9 9 10 10 8 7 9 9 9 9 9 9 8 7 6 6 6 4 4 4 5 5 5 5 4 5 6 6 7 8 6 6 10 10 10 10 10 6 7 8 8 8 7 7 7 7 7 7 9 5 3 3 5 2 5 4 6 5 6 7 6 5
7 6 6 8 9 10 9 9 9 9 9 10 10 9 9 7 7 6 5 5 5 4 5 5 5 5 5 6 5 6 4 5 8 10 10 10 9 9 9 9 9 9 7 7 7 8 8 8 8 7 8 7 3 3 5 5 3 9 7 6 8 7 7
7 7 7 7 8 8 8 9 9 9 8 9 9 10 10 10 9 7 6 6 5 5 6 6 6 6 6 7 8 7 7 6 9 11 10 8 9 9 9 8 7 7 7 8 8 8 9 9 9 8 8 9 9 6 4 5 6 7 6 6 5 7 8
8 8 7 8 8 8 8 9 8 8 8 8 9 10 11 12 10 9 8 7 7 6 6 6 6 7 7 7 7 7 9 8 5 6 6 8 9 8 7 9 6 6 9 8 8 8 8 7 8 8 8 10 9 8 7 7 8 7 7 8 8 7 8
7 6 6 7 7 7 8 8 9 10 10 10 9 9 10 12 11 11 8 8 8 7 8 8 7 8 7 7 8 9 8 7 9 9 9 8 7 5 6 7 8 9 8 8 9 9 8 9 8 8 8 8 8 9 8 9 8 7 7 6 6 7 7
6 6 6 7 6 7 8 9 11 9 10 10 9 9 9 11 12 12 12 12 11 10 9 9 8 7 8 9 8 7 7 7 5 7 5 6 6 5 5 6 7 8 8 9 9 8 8 8 8 7 7 7 7 8 7 7 6 5 6 9 7 5 8
6 7 7 8 7 9 9 10 11 10 11 9 10 11 11 12 13 14 13 13 13 11 10 9 8 8 8 8 8 7 8 8 7 9 7 5 4 3 5 6 7 8 8 8 8 8 8 8 8 8 7 7 7 6 6 7 8 6 7 8 7 6 10
8 7 8 8 8 9 9 10 10 10 10 11 11 12 12 12 12 12 12 16 17 17 15 12 8 7 7 8 8 8 7 6 7 5 2 6 6 6 7 7 6 8 8 8 7 7 7 6 5 5 6 6 8 7 7 7 8 4 1 3 6 6 8
6 6 8 9 9 9 10 10 10 11 11 11 11 12 12 11 11 11 12 15 14 14 14 16 18 14 11 8 8 5 4 5 4 3 3 4 4 3 4 6 8 7 6 8 7 7 7 7 8 7 7 8 8 8 8 7 7 7 7 3 6 3 6
6 7 9 9 10 10 9 9 11 12 12 11 11 11 11 12 12 11 11 13 14 13 13 14 12 13 14 15 13 7 3 5 5 4 5 6 7 6 5 5 6 6 5 7 7 7 5 8 6 5 10 9 9 9 9 9 6 7 8 7 7 8 7
8 8 9 10 11 10 9 8 10 11 11 11 12 11 11 12 11 12 11 14 14 14 14 15 14 13 14 14 15 13 5 3 3 4 5 5 4 4 5 5 5 6 7 7 7 6 7 6 5 8 11 10 11 11 8 8 7 7 7 8 7 9 8
11 10 10 10 10 10 9 8 8 10 11 12 12 12 11 11 12 13 11 11 14 14 13 14 15 16 15 13 14 14 13 7 4 4 4 5 4 4 5 5 6 7 7 8 8 7 4 5 5 6 8 9 10 9 7 8 9 7 8 9 7 5 6
11 10 10 10 10 10 9 8 7 8 9 11 11 12 12 11 11 13 14 10 12 14 14 14 14 15 15 15 14 12 11 12 9 6 6 5 3 5 8 8 7 8 8 9 9 4 6 7 6 8 12 9 7 7 9 10 8 7 7 8 8 5 6
10 10 10 10 9 9 9 9 7 7 7 9 11 11 12 12 11 12 13 12 14 15 15 14 14 16 15 14 14 13 11 11 12 11 6 4 4 5 6 6 6 6 8 8 7 5 6 10 10 13 13 8 7 9 9 9 8 8 7 7 6 8 9
9 10 10 9 9 9 10 10 9 7 6 8 9 11 12 11 10 10 11 12 13 13 14 14 15 17 15 13 13 13 11 11 10 11 10 5 5 7 6 6 6 6 6 6 6 5 5 7 10 12 9 7 8 9 9 7 8 8 7 7 9 7 8
7 8 9 10 10 11 11 10 10 9 8 7 7 9 9 10 12 13 13 12 13 13 13 13 15 18 17 17 13 11 12 11 10 10 11 8 6 4 5 5 5 5 5 8 7 6 5 6 7 8 6 5 6 8 8 7 7 7 7 7 8 7 8
6 6 8 9 9 9 10 10 10 11 12 10 7 7 10 10 12 13 14 14 12 12 12 11 22 26 22 16 14 11 10 10 9 9 10 10 7 5 3 3 4 8 9 9 9 10 11 11 12 10 9 8 8 8 8 8 8 7 7 7 8 9 10
5 6 6 6 7 8 8 8 9 11 12 12 12 9 9 11 12 12 13 13 14 13 12 15 26 23 23 25 17 12 10 10 8 7 8 9 9 7 5 2 3 4 5 6 7 11 11 11 13 15 15 15 9 9 10 10 10 10 9 9 8 9 10
6 5 5 6 7 6 6 7 8 9 11 13 12 12 12 12 11 12 12 12 13 14 13 22 24 25 25 24 22 14 10 9 9 8 9 9 8 5 3 5 3 3 4 5 4 6 7 8 10 9 12 18 17 15 10 9 11 9 10 9 8 10 9
9 11 9 7 6 8 7 6 7 8 11 10 10 12 12 13 13 12 13 14 13 15 14 22 23 26 26 25 25 19 10 10 9 10 11 12 12 5 5 6 6 5 5 7 5 4 5 6 8 10 19 20 18 13 9 11 11 10 10 10 10 9 10
9 10 11 11 10 10 11 9 5 5 6 9 10 10 11 12 12 13 13 13 12 12 13 21 24 25 26 26 24 19 13 13 12 12 13 12 13 13 12 11 11 8 7 6 4 3 2 4 6 7 8 10 10 6 1 3 7 8 8 9 10 11 10
8 9 10 10 11 11 12 11 9 5 7 8 10 10 10 10 11 12 12 11 11 11 13 24 23 24 25 25 23 16 13 12 12 13 13 13 13 14 12 12 11 12 13 11 10 9 1 2 2 6 8 8 6 6 6 4 5 7 7 6 5 6 4
8 8 8 9 10 11 11 11 12 8 5 7 7 7 7 8 9 10 10 11 11 12 12 21 23 23 24 24 21 14 13 13 13 13 13 14 12 13 12 13 11 13 12 11 15 22 17 6 3 2 4 5 7 4 3 1 3 5 4 3 4 6 6
7 6 6 8 10 11 11 11 10 9 7 6 8 8 7 7 7 8 9 10 11 11 11 18 22 23 23 24 17 13 13 12 13 13 11 12 11 11 11 14 12 11 12 11 19 22 16 10 2 5 6 5 4 4 3 2 6 5 5 8 11 9 9
6 6 6 7 8 8 9 8 9 8 9 7 9 8 5 6 6 7 8 10 10 10 11 15 21 22 22 23 18 13 12 12 11 12 11 12 11 10 12 21 19 13 13 13 20 19 17 7 5 7 6 5 6 6 5 0 4 5 9 12 13 12 9
5 5 5 6 6 7 7 8 6 7 7 7 8 9 8 5 6 6 7 7 14 11 10 12 19 20 22 22 18 11 11 10 11 12 11 11 11 10 12 13 19 18 15 16 19 19 19 10 4 6 5 5 6 8 8 7 7 6 6 7 7 8 7
4 4 5 5 5 5 5 5 7 7 7 7 8 9 9 6 9 8 7 7 8 8 9 10 14 20 20 21 21 13 10 11 13 13 11 12 11 11 12 11 14 20 20 20 20 20 19 16 9 7 4 5 8 8 7 7 4 4 5 8 8 8 6
5 4 4 4 4 4 5 5 5 6 6 6 7 9 10 7 8 9 9 8 8 9 9 10 12 18 19 20 20 17 10 11 11 10 10 10 10 11 12 11 10 19 21 20 20 21 21 20 16 9 6 4 5 4 9 6 7 6 7 7 8 7 6
3 4 4 4 5 6 5 5 5 5 6 6 7 8 7 6 6 8 9 9 9 9 11 14 11 15 18 19 19 20 12 11 11 9 9 9 10 10 11 11 11 17 19 19 20 20 23 21 20 10 10 10 7 16 8 6 5 5 6 7 7 6 6
3 4 5 5 5 5 5 6 6 5 5 5 7 7 8 7 5 7 8 8 8 9 10 10 14 13 17 18 19 18 18 14 16 9 9 11 12 10 9 10 12 19 18 19 18 20 21 22 17 15 17 8 12 14 10 5 7 5 5 6 7 7 5
2 4 5 5 5 5 6 5 5 6 6 6 7 8 8 7 6 7 9 9 8 9 9 9 11 15 14 18 17 18 17 17 17 11 9 9 9 9 9 10 12 18 18 18 19 18 20 21 17 23 19 18 12 9 8 7 7 8 7 6 7 7 6
Wind_Direction
357 312 310 308 285 269 284 273 273 269 265 297 278 258 268 262 272 237 239 312 268 118 195 220 231 240 230 216 222 236 245 239 229 227 235 231 214 230 209 224 232 233 240 260 320 194 157 176 223 237 213 200 192 206 195 182 178 178 178 188 179 187 197
12 5 351 339 316 288 288 294 302 303 326 323 332 309 280 269 257 268 155 223 239 143 212 230 222 215 228 240 238 229 241 280 269 252 242 230 217 231 204 227 221 207 220 264 220 252 175 155 206 188 191 177 198 218 219 196 184 182 179 186 186 190 190
11 9 11 359 355 348 340 331 325 330 324 325 320 315 311 301 280 246 113 204 230 271 243 211 230 192 224 229 234 233 225 232 234 242 237 238 227 229 215 209 218 198 205 233 242 227 240 162 164 198 195 183 195 210 197 204 189 183 180 188 191 196 189
6 9 6 2 359 0 2 356 354 337 322 313 304 299 291 291 298 298 218 210 225 232 240 233 259 224 214 241 251 244 234 227 232 243 252 247 231 223 213 201 205 204 198 205 209 209 200 183 186 199 194 202 207 179 211 196 189 183 182 183 192 195 199
5 4 0 357 9 0 356 347 342 336 330 314 302 294 296 310 326 317 304 285 219 221 231 207 219 237 209 230 240 272 258 237 233 231 239 238 223 238 225 206 212 206 212 203 200 198 199 201 187 186 187 190 227 222 168 188 191 184 187 187 198 195 204
6 4 357 2 7 3 353 345 340 339 333 334 339 338 332 328 322 309 305 306 301 280 267 248 247 243 220 237 238 244 246 229 228 233 237 237 224 218 216 202 213 211 213 207 198 198 206 183 175 182 204 174 191 195 193 170 200 207 192 193 195 195 204
9 359 1 6 1 356 352 343 343 341 339 339 337 341 331 323 317 301 293 284 270 265 267 258 247 238 248 242 222 234 235 224 227 236 237 243 235 225 191 204 202 207 212 199 200 192 200 186 199 198 177 195 187 186 176 184 179 174 230 206 196 193 200
5 6 10 5 1 355 348 345 347 348 345 342 340 337 333 328 319 307 298 296 285 280 284 278 258 247 245 248 249 245 246 253 233 230 228 229 229 213 199 201 204 211 207 202 198 211 209 201 194 192 171 175 193 189 207 216 206 210 192 196 191 198 208
9 14 12 9 356 346 345 349 347 344 340 338 338 338 337 333 326 326 322 308 303 298 289 278 275 268 251 255 262 267 263 239 236 228 228 226 231 220 208 204 202 200 210 214 207 208 207 204 202 195 188 184 180 197 195 203 203 222 198 182 201 200 203
20 17 12 5 358 356 355 352 345 339 334 341 343 344 339 334 331 332 327 323 317 306 299 290 276 268 259 254 254 254 252 249 250 264 253 238 227 215 195 201 201 205 213 211 208 210 211 208 208 199 194 193 189 185 185 202 208 200 210 189 182 204 194
26 19 11 10 7 3 2 358 350 347 346 341 344 342 338 340 338 339 335 331 318 304 293 288 282 277 267 261 254 256 256 247 236 236 229 230 233 205 201 200 194 206 207 205 206 204 205 207 201 197 199 199 187 196 188 192 212 199 193 199 188 184 187
38 25 23 17 10 8 14 5 356 346 344 346 346 341 350 357 356 350 345 336 326 315 301 290 285 281 277 271 264 257 250 241 224 250 247 225 228 208 214 216 205 213 210 210 211 203 203 202 202 196 201 197 203 205 187 196 204 226 183 190 203 179 173
42 31 32 19 19 17 20 11 1 354 351 347 350 350 0 360 359 355 347 336 329 320 310 299 289 282 280 273 269 261 254 240 234 237 230 231 235 226 231 230 220 219 217 215 214 207 203 201 197 198 201 200 202 196 180 192 208 208 196 189 187 177 172
41 39 33 21 27 28 25 15 8 360 355 360 355 358 2 359 359 356 353 359 354 352 337 322 302 290 288 285 276 266 261 246 241 244 171 222 212 216 226 239 244 234 227 225 223 213 215 209 214 216 211 206 209 203 192 193 206 201 224 188 169 175 176
41 41 38 26 32 33 28 22 12 8 6 358 2 0 2 357 1 357 18 14 11 6 3 5 0 348 332 317 308 306 283 259 224 210 190 236 232 223 214 218 236 247 249 235 227 238 218 212 203 204 221 217 214 210 204 199 201 176 184 153 179 169 159
34 38 39 33 32 31 31 26 21 17 12 1 3 4 360 358 1 1 24 17 8 2 2 2 354 356 354 346 330 313 278 252 257 237 220 215 211 196 206 213 233 242 235 241 230 223 210 221 185 190 220 217 216 213 204 196 175 183 172 190 180 173 176
30 34 39 35 32 27 26 32 25 23 18 13 10 2 3 6 4 4 18 26 14 5 6 2 355 354 350 345 342 332 318 303 282 244 234 237 208 207 216 205 222 239 243 245 244 223 213 212 196 201 219 216 213 209 195 192 194 176 183 170 198 184 182
28 30 38 34 31 26 22 28 32 25 20 20 18 10 6 4 9 9 9 35 16 8 9 5 2 357 350 345 341 337 333 325 306 289 251 221 220 222 233 220 229 230 233 235 234 223 136 213 216 231 238 218 211 203 193 195 198 184 177 186 178 188 169
29 29 30 30 29 27 22 20 31 30 25 23 22 24 22 14 14 15 7 24 22 14 8 8 6 359 350 344 341 336 334 331 314 271 255 247 205 206 230 235 234 231 224 223 230 200 164 188 179 221 231 221 206 195 201 202 195 189 186 188 167 156 183
31 28 28 27 25 27 22 17 23 29 26 27 27 24 21 21 20 15 15 16 22 15 8 6 6 360 350 345 339 334 329 327 324 325 306 246 234 234 230 235 242 233 228 220 222 208 181 180 186 218 226 206 196 200 206 200 196 197 188 176 179 172 172
38 32 26 22 23 26 21 16 16 21 24 31 31 30 25 23 21 16 18 21 22 17 9 9 5 356 351 343 336 330 326 322 321 317 312 286 224 233 240 242 240 233 225 224 216 205 190 187 191 216 220 201 197 201 207 197 195 193 196 186 171 175 181
47 44 37 31 28 26 21 15 14 16 18 26 34 32 29 24 20 20 19 19 20 20 17 12 7 356 346 342 336 328 326 318 313 310 308 306 288 239 234 234 240 244 235 240 223 188 181 201 182 201 234 226 195 198 204 201 191 183 181 180 173 172 172
50 46 44 42 37 32 28 22 19 20 18 17 23 30 28 27 26 23 18 16 19 19 15 11 359 355 352 348 335 326 320 316 311 303 308 306 297 286 260 247 245 256 249 238 229 216 211 201 196 187 216 226 221 198 197 198 197 189 186 189 181 171 179
44 45 44 38 35 33 30 30 33 30 25 20 16 19 25 28 29 24 21 19 18 19 13 5 357 355 354 354 353 335 321 309 300 299 304 311 310 312 298 274 253 264 260 233 212 205 198 199 204 202 201 217 215 204 197 196 197 182 186 198 179 177 185
29 31 36 34 27 24 23 26 32 34 34 28 21 19 22 25 28 25 20 19 20 17 10 3 359 359 358 356 354 344 327 321 315 315 318 315 309 298 275 281 280 274 258 242 197 177 184 178 203 202 203 223 224 218 211 202 191 184 185 190 185 191 184
34 32 26 18 16 15 15 21 29 33 34 33 28 25 24 24 26 24 20 19 18 15 10 4 1 1 0 358 355 351 339 336 331 334 345 339 330 318 287 297 298 290 273 270 236 184 158 168 145 180 211 215 225 222 215 235 231 207 191 189 189 191 193
35 37 33 27 23 21 19 16 17 28 34 30 32 30 26 28 28 26 22 20 17 13 12 4 2 3 3 0 358 358 357 350 349 357 0 8 18 3 357 348 338 320 321 325 313 276 198 160 142 155 194 210 212 185 167 212 206 193 203 203 193 199 197
37 38 37 33 28 27 19 15 18 20 32 30 27 26 24 24 28 28 24 18 15 12 14 6 3 4 4 3 360 1 2 356 353 3 3 12 10 4 357 355 351 353 350 343 353 337 230 194 178 165 183 198 190 186 187 184 190 192 179 192 208 203 179
38 40 39 38 37 30 24 17 12 12 30 31 29 28 26 28 29 29 24 19 15 11 8 7 4 5 5 4 3 8 2 360 3 5 2 8 5 1 360 360 354 350 341 337 349 346 335 311 158 227 201 186 177 153 88 26 327 315 298 218 174 167 169
39 37 36 43 41 34 27 17 14 7 16 28 27 24 24 22 27 25 21 19 16 13 8 8 7 5 6 5 6 9 6 5 7 5 4 3 1 359 0 2 0 351 342 339 340 339 333 329 213 204 212 203 150 131 252 132 67 81 108 75 80 92 109
41 35 39 44 43 41 32 24 17 10 14 16 20 12 8 20 27 22 20 19 15 12 10 7 8 7 7 9 7 9 7 7 5 7 3 3 1 358 358 2 8 2 354 347 341 341 335 345 250 216 206 190 147 156 212 194 108 87 108 111 109 106 97
44 43 45 46 50 44 35 28 16 13 15 19 18 6 2 17 23 17 18 17 15 13 8 6 8 6 7 9 10 6 6 3 5 9 4 2 3 0 355 353 2 5 358 349 354 355 350 345 284 237 209 200 189 181 185 176 153 145 137 114 101 87 51
44 48 46 49 52 49 37 31 23 24 20 21 18 8 7 12 22 14 8 10 7 7 4 2 4 6 5 6 10 10 5 7 5 3 2 3 356 2 357 355 356 1 357 357 360 0 0 355 331 273 200 201 191 200 170 173 155 150 124 110 105 95 95
52 33 51 60 62 46 37 34 25 29 25 24 26 19 16 16 25 17 8 3 4 0 2 2 359 4 1 2 6 11 7 9 355 359 358 2 4 357 354 356 353 358 358 2 4 5 6 0 353 327 299 224 216 136 123 120 132 138 118 114 108 105 99
50 45 50 65 63 48 33 30 28 26 27 26 26 24 18 18 24 20 9 4 3 356 357 3 5 1 0 358 359 7 13 5 358 351 1 7 2 5 359 352 356 354 357 4 8 11 10 8 3 8 328 318 111 121 128 124 108 104 113 109 104 95 91
53 51 56 68 74 60 42 33 21 22 27 26 25 20 16 13 17 19 13 5 0 356 355 357 5 4 358 358 356 358 4 6 2 2 8 9 7 359 351 356 354 358 1 5 10 14 17 15 12 358 351 48 117 112 113 107 109 101 93 102 105 97 89
62 62 69 66 71 69 48 34 26 21 22 29 27 23 14 12 12 15 11 2 0 358 355 356 354 4 1 358 355 353 353 359 6 6 5 6 359 355 354 356 354 358 5 8 11 16 21 22 17 10 7 21 37 93 110 101 82 84 76 57 65 75 73